Probability
30 29 27 26 23 17 10 4 1 1 1 1 1 1 2 3 4 6 8 7 5 3 1 0 0 0 0 0 0 0 2 4 5 5 4 3 2 2 3 2 1 2 4
34 32 31 29 26 20 11 5 2 1 1 1 0 1 2 3 4 5 6 5 4 3 2 1 0 0 0 0 0 1 3 4 5 4 4 3 2 2 2 1 2 4 6
35 34 34 33 30 23 15 8 4 3 2 1 1 2 3 3 4 5 4 4 3 3 2 1 0 0 0 0 1 3 4 4 4 5 4 3 3 4 3 2 3 7 9
35 35 36 35 31 26 20 13 8 6 4 3 3 4 4 4 5 5 5 4 4 3 3 1 1 1 0 1 2 4 4 4 4 5 4 2 6 9 8 4 4 7 8
38 36 38 37 33 29 26 20 14 9 7 6 5 5 5 6 6 6 6 6 5 4 3 3 2 2 1 1 3 3 3 3 3 3 2 2 9 15 12 6 4 5 5
39 39 40 40 37 34 31 26 21 16 12 10 8 8 9 9 8 8 8 8 7 5 4 4 4 3 3 3 3 3 3 2 1 1 0 3 12 18 15 7 4 5 6
41 42 43 43 41 38 34 30 27 24 19 14 11 10 11 11 10 9 9 9 9 8 6 5 5 5 4 3 3 3 3 2 1 0 1 5 15 22 18 9 6 7 8
43 45 45 43 41 38 34 31 29 26 22 17 14 13 12 12 11 11 11 11 12 12 10 8 6 5 4 3 3 3 3 3 1 0 1 8 20 27 24 15 11 10 9
45 46 44 38 36 33 32 31 29 26 22 19 17 15 14 14 13 13 14 16 17 15 13 10 7 6 5 4 3 3 4 4 3 2 3 12 26 33 28 19 13 12 10
47 47 42 35 31 30 29 29 29 27 23 22 20 18 16 15 14 13 14 17 19 18 15 11 8 8 7 5 5 4 5 5 3 3 6 16 30 35 29 20 14 12 11
47 46 40 33 30 27 26 28 28 26 24 24 23 20 17 15 13 11 11 16 19 18 16 13 11 10 8 7 6 6 5 4 3 3 8 19 29 32 27 21 16 13 12
50 47 40 35 31 25 25 30 30 26 24 23 21 20 19 16 13 11 13 17 19 20 18 15 12 10 8 7 8 9 7 3 2 3 9 20 27 27 23 20 17 16 14
54 51 44 38 33 28 30 34 31 26 23 21 20 21 21 16 13 14 18 20 21 20 18 16 14 12 10 9 9 10 9 5 3 4 8 17 23 23 23 21 19 17 15
55 52 47 43 41 41 41 38 32 27 25 23 23 24 23 19 16 19 24 26 23 19 17 17 16 14 12 11 9 9 9 8 7 5 6 13 18 21 23 24 21 18 16
57 54 50 49 51 52 49 42 33 31 30 28 27 29 28 26 26 28 30 30 25 20 18 18 17 16 14 12 9 8 8 9 8 6 6 10 15 18 20 22 21 18 16
61 59 56 54 55 54 48 41 35 34 35 33 34 36 36 36 38 38 36 32 27 23 22 22 21 18 15 13 11 8 7 7 6 6 6 8 10 12 15 18 19 18 17
63 61 56 51 50 49 44 39 36 36 37 38 39 42 43 44 44 42 39 34 28 25 25 26 25 21 16 12 10 7 6 5 5 6 7 6 6 6 9 13 18 19 17
59 57 51 43 43 46 44 41 38 37 37 39 42 45 47 47 44 41 39 35 30 26 25 25 25 22 16 10 7 5 4 5 5 5 7 6 5 5 6 9 13 16 15
55 52 44 38 39 43 44 42 40 37 37 38 41 44 46 45 42 40 38 36 32 28 26 25 25 24 18 11 6 4 4 5 5 5 7 7 7 7 7 7 9 10 11
53 47 39 34 35 39 42 42 40 37 35 34 37 41 43 43 41 40 37 35 33 32 30 27 26 23 19 12 6 4 4 5 6 7 7 9 10 11 10 8 8 8 8
49 44 39 35 34 37 39 40 38 37 34 32 33 37 40 42 42 40 36 34 34 33 30 27 24 20 17 12 6 2 3 4 6 7 7 8 10 10 9 9 9 8 6
46 43 41 39 37 36 37 37 37 37 36 33 33 35 37 39 40 38 37 34 32 30 28 25 23 20 15 9 4 2 1 2 4 5 6 7 7 7 7 7 9 9 8
46 44 43 42 39 36 35 35 36 36 37 35 35 35 36 36 36 35 34 32 30 28 27 26 25 23 16 7 3 2 1 2 3 4 5 6 6 6 5 6 8 10 9
45 43 43 43 40 37 36 35 35 36 37 35 35 35 35 35 33 32 30 29 28 27 27 26 26 25 19 10 5 4 3 3 4 5 5 6 6 6 7 7 9 9 8
41 42 42 42 40 38 37 35 34 36 36 35 34 34 33 32 30 28 27 27 28 28 27 26 26 25 19 12 8 5 4 4 4 5 5 5 5 5 6 8 9 8 6
39 41 41 40 40 39 37 34 34 35 35 35 34 33 32 31 29 25 24 25 27 27 27 26 25 23 18 12 8 6 4 2 3 4 4 4 3 4 5 8 10 8 5
Wind_Speed
15 16 16 15 13 12 12 11 10 10 10 10 9 9 8 8 8 7 7 7 6 6 5 5 4 4 4 4 4 5 5 5 5 5 4 4 5 5 4 4 1 4 8
19 17 17 15 14 13 12 11 10 10 10 9 9 8 8 7 7 7 6 6 5 5 5 4 4 3 3 3 3 3 3 2 2 1 1 2 3 4 4 3 4 5 8
19 17 16 15 14 13 13 11 11 10 10 10 9 8 8 7 6 6 5 4 4 4 4 3 3 3 2 2 2 1 1 0 1 2 3 3 4 6 5 4 5 5 6
18 15 14 15 14 13 13 12 11 11 11 10 9 9 8 7 6 6 5 4 3 3 3 2 2 2 1 1 1 0 1 2 4 6 5 4 3 7 6 5 5 4 5
15 14 15 16 14 13 13 12 11 10 10 10 9 8 8 7 6 5 5 4 3 2 2 2 2 1 0 0 1 2 3 5 6 8 7 2 4 8 7 6 4 4 4
15 15 15 15 15 13 13 12 11 10 10 9 8 8 8 7 5 5 4 4 3 2 2 2 1 1 1 1 2 3 4 6 8 7 5 2 5 8 8 6 5 4 4
14 15 15 15 15 14 13 12 11 11 9 8 8 7 6 6 5 5 4 3 3 3 2 2 1 1 1 2 3 4 5 7 8 7 3 1 5 9 8 7 5 5 5
14 15 14 15 15 13 13 12 11 10 10 8 7 7 6 5 5 5 4 3 3 2 2 2 2 2 2 4 5 5 6 9 8 6 2 2 7 9 8 6 5 5 5
14 15 13 13 13 13 13 12 11 10 9 9 8 7 6 6 5 5 5 4 3 3 3 3 3 4 4 5 7 7 8 9 8 5 4 2 7 7 7 6 5 5 5
13 13 13 12 12 11 11 12 11 10 10 9 8 7 7 7 6 6 6 5 5 4 4 4 5 5 6 7 8 9 9 9 8 6 2 3 7 6 5 4 5 5 5
10 11 11 11 11 10 10 11 11 10 9 9 7 8 7 5 6 6 6 7 7 7 6 6 7 7 7 9 10 11 9 5 6 2 1 4 5 5 4 4 4 6 6
9 10 9 9 9 8 7 8 7 7 7 6 5 5 4 3 3 4 7 9 9 8 8 9 9 8 7 5 7 10 4 6 4 2 2 6 5 5 4 4 4 5 6
9 8 9 8 7 6 5 6 3 3 5 5 5 5 4 3 2 2 3 4 5 7 5 6 7 5 4 3 3 4 5 4 2 1 3 6 6 5 5 4 5 5 6
9 7 7 8 7 4 3 4 4 3 3 3 3 3 3 2 2 1 1 1 2 2 2 2 2 3 4 4 4 4 4 3 2 1 2 6 6 6 6 6 6 7 7
7 7 6 7 7 4 2 2 3 3 3 4 3 3 3 2 1 1 1 0 1 1 1 2 2 2 4 4 4 4 3 4 3 1 2 5 6 7 8 8 7 7 8
7 6 5 6 7 5 3 2 2 2 2 2 3 3 2 1 1 0 1 1 1 1 1 2 2 2 2 3 4 4 4 4 3 3 2 4 7 8 9 9 8 8 9
6 6 6 6 6 5 4 3 3 2 2 2 2 3 3 2 1 1 1 1 1 2 2 2 2 2 3 3 4 4 3 4 3 3 3 3 3 7 9 10 9 9 9
6 6 5 5 6 5 3 2 1 1 1 2 2 2 2 2 1 1 1 1 1 2 1 1 1 2 2 3 3 4 3 3 4 4 3 3 3 3 6 8 10 10 10
6 6 5 4 5 4 3 3 1 0 0 1 1 1 2 2 2 1 1 1 2 1 1 2 1 2 2 3 4 3 3 3 3 4 3 3 3 3 3 5 8 9 10
6 7 6 5 5 4 3 2 1 1 1 1 1 1 1 2 2 2 2 2 2 1 1 1 2 2 2 2 4 4 3 4 3 3 3 3 2 3 3 3 4 6 9
6 7 6 6 5 4 3 2 3 2 2 1 2 2 2 2 2 2 2 2 2 1 1 1 2 2 2 2 2 4 4 3 3 2 2 2 2 2 2 3 2 2 3
7 7 7 6 5 4 2 2 2 2 2 2 1 2 2 2 3 3 2 1 0 1 1 1 1 2 2 2 2 3 3 2 1 2 2 3 2 2 2 3 2 2 2
7 7 6 6 5 4 3 2 2 2 1 1 1 1 1 1 1 1 1 1 1 1 1 1 1 2 2 2 1 1 2 2 3 2 3 2 2 3 3 2 3 3 3
7 6 6 6 5 5 4 3 3 2 2 2 1 1 1 1 2 1 1 2 1 1 1 2 1 2 2 2 2 1 2 2 2 3 2 2 3 3 3 3 2 2 3
8 7 6 6 5 5 4 3 3 2 1 1 1 2 2 1 1 1 1 1 1 1 1 1 1 2 2 2 2 2 3 2 3 3 4 3 2 2 2 3 3 3 3
7 7 7 7 6 5 4 3 2 2 1 1 1 0 1 1 1 1 1 1 1 1 1 1 2 2 1 2 3 2 2 2 3 3 4 4 3 3 3 2 3 3 3
Wind_Direction
121 128 130 128 128 130 131 131 131 132 129 127 125 121 116 111 106 104 104 105 105 107 110 108 103 95 85 74 61 53 49 45 46 54 63 73 85 92 92 86 83 116 116
123 129 130 129 131 133 134 136 137 137 134 133 130 129 126 122 119 116 114 115 114 114 112 107 102 96 93 88 81 71 59 44 38 54 103 136 145 138 125 98 59 99 117
121 130 132 132 133 135 137 140 142 141 138 137 137 136 134 134 131 127 125 125 125 125 122 113 106 99 94 91 92 87 76 329 277 260 242 218 169 161 147 123 106 109 122
125 133 133 135 135 138 140 142 145 144 142 142 144 143 142 142 139 138 138 136 133 131 127 123 112 101 89 90 108 136 270 270 270 269 253 239 171 150 149 139 129 130 138
123 129 131 138 137 140 142 143 143 144 144 147 150 150 149 152 148 147 148 147 144 142 146 147 131 127 151 260 270 270 268 270 274 271 267 238 132 149 150 144 143 148 157
131 133 135 140 139 142 145 145 144 146 147 148 152 155 155 156 154 156 159 160 161 159 153 152 148 157 245 268 277 282 281 282 283 268 259 196 139 153 155 158 167 177 179
133 131 138 140 141 143 147 147 149 150 149 152 156 157 158 158 159 165 168 174 178 182 178 183 189 204 258 274 278 279 282 284 274 275 283 228 142 152 157 163 176 194 198
133 132 138 143 145 147 149 151 154 154 155 157 160 162 159 163 172 178 180 189 197 198 206 224 239 253 261 267 269 273 277 282 280 283 270 149 141 150 157 163 174 196 212
135 136 145 150 150 150 152 155 157 158 158 159 162 168 173 177 184 186 181 191 195 197 215 233 248 257 261 263 264 266 271 277 282 277 275 152 149 152 158 166 179 200 215
139 141 148 153 156 158 158 161 163 164 166 165 168 179 185 189 196 200 194 196 201 206 217 232 244 252 258 260 261 261 264 273 264 263 259 136 140 142 157 172 189 202 213
142 141 148 155 159 163 161 163 168 171 174 174 181 191 194 202 203 201 201 191 201 210 220 234 241 247 253 252 250 254 257 252 261 248 179 139 144 149 165 198 210 216 218
151 148 149 152 158 164 163 157 173 175 173 186 185 186 196 211 218 203 188 193 203 211 221 232 241 246 247 247 239 237 244 250 256 233 167 152 159 168 183 210 227 228 225
152 155 151 149 152 161 151 155 170 175 170 186 188 189 188 211 216 193 173 186 206 213 223 229 231 237 247 248 246 222 238 255 259 252 163 162 173 181 193 212 231 233 235
151 159 150 144 149 149 143 153 170 176 168 172 172 190 191 209 218 155 134 174 214 218 221 231 225 244 265 267 267 255 251 250 251 229 179 181 191 195 203 217 235 241 238
145 150 148 142 136 133 126 155 163 176 174 170 170 181 198 200 196 161 168 182 262 268 264 264 259 275 275 275 272 269 270 269 263 258 200 199 201 205 213 222 232 242 244
140 139 134 138 130 138 146 159 176 181 168 168 159 161 187 186 149 186 198 199 263 282 271 270 276 276 283 283 277 278 275 269 263 250 220 218 217 214 216 225 231 240 245
140 135 131 136 130 142 157 174 187 188 160 159 157 156 165 173 162 190 227 219 247 269 268 262 286 287 278 288 289 283 265 261 259 248 230 221 224 221 221 227 231 237 242
138 135 138 148 139 141 153 165 215 146 141 158 148 142 156 170 195 209 222 238 265 263 269 265 259 282 289 290 286 277 270 254 250 247 238 229 223 222 224 230 231 236 240
134 137 142 133 133 144 152 143 174 187 206 163 141 136 167 180 207 225 229 242 264 263 268 284 305 289 285 281 277 268 268 265 256 262 248 242 237 219 209 224 234 237 239
139 141 144 140 133 139 142 151 178 195 180 161 152 151 176 191 196 217 231 236 253 259 269 285 286 281 279 284 295 298 274 263 251 250 254 251 245 242 219 217 216 233 231
142 145 149 152 145 151 155 168 193 193 177 174 187 184 199 200 203 211 234 250 245 249 272 295 301 295 291 293 298 298 276 249 235 244 247 261 255 260 240 217 207 210 217
154 156 154 157 156 160 158 172 186 177 190 184 172 163 197 210 212 212 188 230 267 264 269 282 284 294 297 309 300 304 295 278 268 260 244 249 261 275 257 237 209 209 218
161 164 163 160 157 155 160 167 172 167 199 197 195 178 189 199 217 223 199 212 223 230 226 253 260 275 280 286 280 289 305 310 314 257 254 256 252 256 255 232 215 207 211
163 162 161 155 155 156 169 184 194 199 199 197 188 163 165 190 202 180 218 209 230 230 240 252 230 261 268 284 284 267 265 294 292 303 284 266 258 253 253 254 245 221 213
159 161 166 153 152 159 173 175 190 204 194 164 143 149 166 160 186 187 212 210 219 231 241 256 262 260 266 285 289 287 289 277 266 274 293 295 279 256 250 241 232 231 227
154 156 156 151 151 155 166 167 178 190 179 166 159 174 194 166 185 210 220 225 229 239 242 242 253 253 258 274 280 285 285 288 290 283 287 289 282 266 256 242 226 227 232